Cavern City Air Terminal Carlsbad US
ICAO: KCNM
IATA: CNM
Category: Medium
Scheduled Services: Yes

Elevation: 3295 ft
TransAlt. 18000 ft.

Airport Communications:
ASOS:118.375
ALBUQUERQUE CNTR:135.875
ALBUQUERQUE RDO:122.65
CTAF/UNICOM:122.95

KCNM Zoom In..

If you have problems with the map follow the link
https://www.worldairports.se/pages/airport.php?
ICAO=KCNM

Runways:

(A) RW 03 length 7854 ft width 150 ft
ILS 111.90 / hdg 34

(B) RW 08 length 5334 ft width 75 ft
---- / hdg 80

(C) RW 14L length 4616 ft width 150 ft
---- / hdg 146

(D) RW 14R length 5837 ft width 100 ft
---- / hdg 144

(E) RW 21 length 7854 ft width 150 ft
---- / hdg 214

(F) RW 26 length 5334 ft width 75 ft
---- / hdg 260

(G) RW 32L length 5837 ft width 100 ft
---- / hdg 324

(H) RW 32R length 4616 ft width 150 ft
---- / hdg 326

Location; KCNM
Day. 19 / Time. 12.53 Zulu
* Altimeter: 30.15
* Temperature: -03° c. -26.6°f.
* Wind from: 260° Speed 04 kn.
Dewpoint: -04° c.
Visibility: 7 Statute Miles.
Clouds: Clear (automated report).

KCNM 191253Z AUTO 26004KT 7SM CLR M03/M04 A3015 RMK AO2 SLP215 I1000 T10331044


Wind From 260°
Speed 04 kn.

 
 
jpsmedia.com for Web Design worldairports.se 2018   terms of use